Regional Weather Roundup
Issued by NWS

Home | Current Version | Previous Version | Graphics & Text | Print | Product List | Glossary On
Versions: 1 2 3 4 5 6 7 8 9 10 11 12 13 14 15 16 17 18 19 20 21 22 23 24 25 26 27 28 29 30 31 32 33 34 35 36 37 38 39 40 41 42 43 44 45 46 47 48 49 50
000
ASUS43 KIND 290909
RWRIN

WEATHER ROUNDUP FOR INDIANA
NATIONAL WEATHER SERVICE INDIANAPOLIS IN
500 AM EDT SAT APR 29 2017

NOTE: "FAIR" INDICATES FEW OR NO CLOUDS BELOW 12,000 FEET WITH NO
SIGNIFICANT WEATHER AND/OR OBSTRUCTIONS TO VISIBILITY.

* - STATION DOES NOT REPORT WEATHER SUCH AS PRECIPITATION OR FOG.

+ - STATION NOT QUALITY CONTROLLED BY THE NATIONAL WEATHER SERVICE.
    USE DATA WITH CAUTION...ESPECIALLY DEWPOINT AND RELATIVE
    HUMIDITY OBSERVATIONS.

INZ001>003-010>013-019-020-291000-
NORTHWEST INDIANA

CITY           SKY/WX    TMP DP  RH WIND       PRES   REMARKS
GARY /AIRPORT/ CLOUDY    48  41  77 N20G28    30.03S
KNOX *+        CLOUDY    48  34  57 NE7       29.97R
LA PORTE +     CLOUDY    48  44  84 N15       29.98F
MICHIGAN CITY+ CLOUDY    45  41  87 NE8       30.02R
MONTICELLO +   CLOUDY    53  52  95 N3        29.97R
RENSSELAER +   CLOUDY    46  43  87 N7        29.99R
VALPARAISO     CLOUDY    49  42  77 N13G23    29.98F

$$

LMZ046-743>745-291000-
SOUTHERN LAKE MICHIGAN

STATION/POSITION TIME  TEMP    WIND        PRES    WAVE
                       AIR SEA DIR/SP/G            HT
                 (UTC) (F)     (DEG/KT/KT) (MB)    (FT)
BURNS HARBOR     0840   47      30/ 17/ 21 1016.9R
MICHIGAN CITY    0840   46      20/ 21/ 23   N/A
5NW MICH CITY    0900   45 46                N/A     5

$$

INZ004-005-014>016-021>024-291000-
NORTH CENTRAL INDIANA

CITY           SKY/WX    TMP DP  RH WIND       PRES   REMARKS
GOSHEN         CLOUDY    53  47  79 NE6       29.99R
LOGANSPORT +   CLOUDY    52  52 100 E6        29.96S FOG
PERU/GRISSOM   CLOUDY    54  54 100 NE6       29.96R FOG
ROCHESTER +    CLOUDY    55  52  88 N6        29.98R
SOUTH BEND     CLOUDY    51  46  83 N10       30.00R
WARSAW +       CLOUDY    52  50  93 NE3       29.97R

$$

INZ006>009-017-018-025>027-291000-
NORTHEAST INDIANA

CITY           SKY/WX    TMP DP  RH WIND       PRES   REMARKS
ANGOLA *+      CLOUDY    54  41  62 CALM      29.98R
AUBURN +       CLOUDY    54  52  94 NE5       29.97S
FORT WAYNE     CLOUDY    55  53  93 NE3       29.97R FOG
HUNTINGTON +   CLOUDY    53  52  95 CALM      29.97R FOG
KENDALLVILLE + CLOUDY    53  51  94 NE7       29.98R

$$

INZ028-029-035-036-043>045-051>053-291000-
WEST CENTRAL INDIANA

CITY           SKY/WX    TMP DP  RH WIND       PRES   REMARKS
CRAWFORDSVL +  LGT RAIN  53  53 100 N8        29.93S
GREENCASTLE +  LGT RAIN  54  54 100 N5        29.94R
LAFAYETTE      LGT RAIN  54  54 100 N3        29.99R FOG
TERRE HAUTE    LGT RAIN  57  55  93 N8        29.91S FOG

$$

INZ030>032-037>040-046>048-054>057-064-065-291000-
CENTRAL INDIANA

CITY           SKY/WX    TMP DP  RH WIND       PRES   REMARKS
CP ATTERBURY + CLOUDY    59  59 100 CALM      29.93R
FISHERS *+     CLOUDY    54  54 100 N5        29.93F
FRANKFORT +    TSTM      57  55  95 NE6       29.97R
GREENWOOD *+   CLOUDY    60  59  98 N9        29.94R
INDIANAPOLIS   TSTM      57  56  96 NE12      29.90F FOG
-EAGLE CREEK   LGT RAIN  57  55  93 N9        29.91S
KOKOMO +       CLOUDY    54  54 100 N5        29.98R FOG
MARION +       CLOUDY    54  54 100 CALM      29.97R FOG
MT COMFORT *+  CLOUDY    55  55 100 N8        29.94R
SHELBYVILLE    LGT RAIN  62  59  90 NE7       29.88F
ZIONSVILLE +   TSTM      55  54  99 E3        29.92F

$$

INZ033-034-041-042-049-050-058-059-291000-
EAST CENTRAL INDIANA

CITY           SKY/WX    TMP DP  RH WIND       PRES   REMARKS
MUNCIE         TSTM      58  55  90 NE5       29.93S FOG
RICHMOND +     CLOUDY    59  59 100 S10       29.94R FOG

$$

INZ060-061-067>069-081>083-085>088-291000-
SOUTHWEST INDIANA

CITY           SKY/WX    TMP DP  RH WIND       PRES   REMARKS
EVANSVILLE     CLOUDY    66  64  93 SE7       29.86F THUNDER
WASHINGTON +   TSTM      61  59  94 N5        29.90R

$$

INZ062-063-066-070>080-084-089>092-291000-
SOUTH CENTRAL AND SOUTHEAST INDIANA

CITY           SKY/WX    TMP DP  RH WIND       PRES   REMARKS
BLOOMINGTON    LGT RAIN  62  60  93 VRB3      29.92R FOG
MADISON *+     CLOUDY    63  61  94 S9        29.94R
NORTH VERNON + CLOUDY    63  63 100 SW14      29.93
SEYMOUR +      LGT RAIN  66  64  94 SW8       29.94R

$$





USA.gov is the U.S. government's official web portal to all federal, state and local government web resources and services.